Burbank, CA

11:36 AM PDT on October 22, 2017 (GMT -0700)
Burbank-Glendale-Pasadena

Weather History for KBUR - September, 2015

Change the Weather History Date:

Monday, September 14, 2015

  Actual Average Record
Temperature  
Mean Temperature 77 °F 74 °F  
Max Temperature 84 °F 87 °F 109 °F (1971)
Min Temperature 70 °F 61 °F 48 °F (1974)
Degree Days  
Heating Degree Days 0 0  
Month to date heating degree days 0 0  
Since 1 July heating degree days 0 0  
Cooling Degree Days 12 9  
Month to date cooling degree days 223 134  
Year to date cooling degree days 1574 1016  
Growing Degree Days 26 (Base 50)    
Moisture  
Dew Point 64 °F    
Average Humidity 68    
Maximum Humidity 84    
Minimum Humidity 51    
Precipitation  
Precipitation T in 0.00 in 0.00 in (2017)
Month to date precipitation T 0.04  
Year to date precipitation 3.41 12.68  
Sea Level Pressure  
Sea Level Pressure 29.80 in    
Wind  
Wind Speed 6 mph (SSE)    
Max Wind Speed 16 mph    
Max Gust Speed 20 mph    
Visibility 10 miles    
Events Rain    
T = Trace of Precipitation, MM = Missing Value Source: NWS Daily Summary

Daily Weather History Graph

Daily Weather History Graph

Search for Another Location

Airport or City:

Trip Planner

Search our weather history database for the weather conditions in past years. The results will help you decide how hot, cold, wet, or windy it might be!

Date:

Astronomy

Sep. 14, 2015 Rise Set
Actual Time 6:35 AM PDT 7:01 PM PDT
Civil Twilight 6:10 AM PDT 7:26 PM PDT
Nautical Twilight 5:41 AM PDT 7:56 PM PDT
Astronomical Twilight 5:11 AM PDT 8:26 PM PDT
Moon 7:48 AM PDT (9/14) 7:53 PM PDT (9/14)
Length of Visible Light 13h 16m
Length of Day
12h 25m
New Moon, 2% of the Moon is Illuminated
Sep 14
New Moon
Sep 21
First Quarter
Sep 27
Full
Oct 4
Last Quarter
Oct 12
New

Hourly Weather History & Observations

Time (PDT) Temp. Heat Index Dew Point Humidity Pressure Visibility Wind Dir Wind Speed Gust Speed Precip Events Conditions
12:53 AM 73.0 °F - 64.0 °F 73% 29.77 in 10.0 mi ESE 5.8 mph - N/A   Clear
1:53 AM 72.0 °F - 64.0 °F 76% 29.77 in 10.0 mi ESE 5.8 mph - N/A   Clear
2:53 AM 71.1 °F - 64.0 °F 78% 29.77 in 10.0 mi Calm Calm - N/A   Clear
3:53 AM 70.0 °F - 64.9 °F 84% 29.76 in 10.0 mi Calm Calm - N/A   Clear
4:40 AM 69.8 °F - 64.4 °F 83% 29.80 in 10.0 mi Calm Calm - N/A   Scattered Clouds
4:48 AM 69.8 °F - 64.4 °F 83% 29.80 in 10.0 mi Calm Calm - N/A   Mostly Cloudy
4:53 AM 70.0 °F - 64.9 °F 84% 29.76 in 10.0 mi Calm Calm - N/A   Mostly Cloudy
5:53 AM 70.0 °F - 64.9 °F 84% 29.78 in 10.0 mi SE 3.5 mph - N/A   Overcast
6:00 AM 71.6 °F - 64.4 °F 78% 29.81 in 10.0 mi Calm Calm - N/A   Overcast
6:02 AM 69.8 °F - 64.4 °F 83% 29.81 in 10.0 mi ENE 3.5 mph - N/A   Mostly Cloudy
6:53 AM 70.0 °F - 64.0 °F 81% 29.79 in 10.0 mi SE 3.5 mph - N/A   Mostly Cloudy
7:20 AM 69.8 °F - 64.4 °F 83% 29.84 in 10.0 mi SE 4.6 mph - N/A   Scattered Clouds
7:53 AM 71.1 °F - 64.0 °F 78% 29.81 in 10.0 mi Calm Calm - N/A   Partly Cloudy
8:53 AM 73.0 °F - 63.0 °F 71% 29.82 in 10.0 mi SSE 9.2 mph - N/A   Partly Cloudy
9:53 AM 73.9 °F - 63.0 °F 68% 29.83 in 10.0 mi East 8.1 mph - N/A   Overcast
10:25 AM 77.0 °F - 62.6 °F 61% 29.87 in 10.0 mi SSE 9.2 mph - N/A   Scattered Clouds
10:53 AM 79.0 °F - 62.1 °F 56% 29.83 in 10.0 mi South 9.2 mph - N/A   Clear
11:53 AM 80.1 °F 81.2 °F 62.1 °F 54% 29.82 in 10.0 mi SSW 5.8 mph - N/A   Mostly Cloudy
12:53 PM 82.9 °F 83.7 °F 62.1 °F 49% 29.81 in 10.0 mi Variable 3.5 mph - N/A   Mostly Cloudy
1:53 PM 82.0 °F 83.0 °F 62.1 °F 51% 29.79 in 10.0 mi South 9.2 mph - N/A   Mostly Cloudy
2:53 PM 82.9 °F 84.0 °F 63.0 °F 51% 29.78 in 10.0 mi SSW 12.7 mph 18.4 mph N/A   Mostly Cloudy
3:53 PM 81.0 °F 82.2 °F 63.0 °F 54% 29.77 in 10.0 mi South 10.4 mph - N/A   Mostly Cloudy
4:53 PM 80.1 °F 81.7 °F 64.0 °F 58% 29.76 in 10.0 mi SSE 11.5 mph - N/A   Clear
5:53 PM 77.0 °F - 64.0 °F 64% 29.77 in 10.0 mi South 9.2 mph - N/A   Mostly Cloudy
6:53 PM 75.9 °F - 64.0 °F 67% 29.78 in 10.0 mi SSW 10.4 mph - N/A   Overcast
7:53 PM 73.9 °F - 64.9 °F 73% 29.78 in 10.0 mi SSW 4.6 mph - N/A   Overcast
8:17 PM 73.4 °F - 64.4 °F 73% 29.83 in 10.0 mi SSW 5.8 mph - N/A   Overcast
8:53 PM 73.9 °F - 64.9 °F 73% 29.81 in 10.0 mi South 5.8 mph - N/A   Overcast
9:15 PM 73.4 °F - 64.4 °F 73% 29.84 in 10.0 mi SSW 5.8 mph - N/A   Overcast
9:41 PM 73.4 °F - 66.2 °F 78% 29.85 in 10.0 mi South 5.8 mph - 0.00 in Rain Light Rain
9:49 PM 73.4 °F - 66.2 °F 78% 29.85 in 10.0 mi SSW 8.1 mph - 0.00 in Rain Light Rain
9:53 PM 73.9 °F - 64.9 °F 73% 29.82 in 10.0 mi South 5.8 mph - 0.00 in   Overcast
10:53 PM 73.9 °F - 64.9 °F 73% 29.81 in 10.0 mi SSE 3.5 mph - N/A   Overcast
11:53 PM 73.9 °F - 64.9 °F 73% 29.81 in 10.0 mi South 3.5 mph - N/A   Overcast